THORAD AGENA D DEB, 42505

Orbit data source: Space-Track

THORAD AGENA D DEB, 42505 is space debris in SSO originally from a launch on Wed, 08 Apr 1970 UTC launched from the Air Force Western Test Range (AFWTR). Debris objects in space refer to the collection of defunct objects orbiting the Earth. Examples of debris include non-operational satellites, rocket bodies, and fragments generated from explosions, collisions, or faulty payload assembly.

Loading next visibility...
Identifier
42505, 1970-025RK
Orbit
SSO
Country
Flag of USUS
Related business
Manufacturer
Unknown
Mission
Spacecraft
Bus & Motor
Unknown
Mass
Unknown
Launch date (UTC)
1970-04-08 (56 years ago)
Launch vehicle
Unknown
Launch site
Air Force Western Test Range (AFWTR)
Object type
Payload
Rocket body
Debris
Shape & HBR
Unknown shape, 0.1 m
Radar Cross Section
Small (<0.1 m²)

Expand to show TLE details & history
Last TLE update: 4 days ago

TLE from 4 days ago
0 THORAD AGENA D DEB
1 42505U 70025RK  26169.66598411  .00000374  00000-0  56379-3 0  9991
2 42505 100.1738 125.1622 0042695 187.5115 349.1834 13.59809107623478
Epoch: 2026-06-18T15:59Z
TLE epoch observation values (Epoch: 2026-06-18T15:59:01.027Z)
Latitude
3.25114°
Longitude
159.08293°
Altitude
1,007.71 km
Speed
7.363 km/s
True Right ascension
20h 22m 58s
True Declination
3° 13' 57"
Sunlit
Object was in full shadow at epoch
Visualization orbit readout
Latitude
Unknown
Longitude
Unknown
Altitude
Unknown
Speed
Unknown
Apparent Right ascension
Unknown
Apparent Declination
Unknown
Sunlit
N/A
Visualization observer readout
Local Sidereal Time
21:53:56
Azimuth
Unknown
Elevation
Unknown
Doppler factor
Unknown
Orbital elements
Apogee altitude
1,065.344 km
Perigee altitude
1,002.054 km
Semi-major axis
7,411.836 km
Eccentricity
0.00427
Inclination
100.1738°
RAAN
125.1622°
Arg. of periapsis
187.5115°
True anomaly
349.0911°
Mean anomaly
349.1834°
Eccentric anomaly
349.1373°
Mean motion
3.40137 °/min
Orbital period
105.84 mins
BSTAR
0.00056379
Loading maneuver chart data...
Computing Atmospheric mass density...

Documentation

Showing up to 5 results
|